カタログに戻る

COSMOS 1275 DEB

運用中PO
NORAD 12725·DEBRIS·🇷🇺 Russia

打ち上げ Jun 4, 1981 から Plesetsk Cosmodrome

Loading…

次のパス (今後24時間)

TLE

最新Source: Space-Track

元期: Sep 14, 2026, 09:30 UTC

1 12725U 81053BS  26257.39606635  .00000970  00000-0  80505-3 0  9991
2 12725  83.1337 268.8027 0092754 112.3479 315.3652 13.85769015253922

AllMySatでCOSMOS 1275 DEBをリアルタイム追跡

Download on the App Store